Location: Dodgeville, WI 53533, USA
(43.0344°N, 90.0900°W)
Time: 18:22:33
(UTC-06:00)

N. Korean satellite - Pass Details

Date: 01 February 2021
Orbit: 451 x 502 km, 97.2° (Epoch: 06 March)

Event Time Altitude Azimuth Distance (km) Brightness Sun altitude
Rises 05:01:30 0° 20° (NNE) 2,482 10.4 -24.6°
Reaches altitude 10° 05:03:40 10° 29° (NNE) 1,599 9.5 -24.2°
Maximum altitude 05:06:51 35° 98° (E) 745 8.0 -23.6°
Drops below altitude 10° 05:09:59 10° 166° (SSE) 1,578 9.3 -23.1°
Sets 05:12:07 0° 175° (S) 2,445 10.2 -22.7°
